User: anonymous   Login
Location: Unspecified
(0.0000°N, 0.0000°E)
Time: 03:37:21
(UTC+00:00)
Language:

LO-87 - Orbit

View from above orbital plane
View from above orbital plane
View from above satellite
View from above satellite

Ground track
Ground track

The orbit data is extracted from the following two-line orbital elements,

1 41557U 16033B   18115.78581442  .00001576  00000-0  59969-4 0  9991
2 41557  97.4369 200.1022 0013327 349.9395  10.1575 15.28214706106155
Epoch (UTC): 25 April 2018 18:51:34
Eccentricity: 0.0013327
inclination: 97.4369°
perigee height: 472 km
apogee height: 490 km
right ascension of ascending node: 200.1022°
argument of perigee: 349.9395°
revolutions per day: 15.28214706
mean anomaly at epoch: 10.1575°
orbit number at epoch: 10615

The dashed part of the orbit path shows where the satellite is in the earth's shadow,  

DLR